Regional Weather Roundup
Issued by NWS State College, PA

Home | Current Version | Previous Version | Text Only | Print | Product List | Glossary On
Versions: 1 2 3 4 5 6 7 8 9 10 11 12 13 14 15 16 17 18 19 20 21 22 23 24 25 26 27 28 29 30 31 32 33 34 35 36 37 38 39 40 41 42 43 44 45 46 47 48 49 50
000
ASUS41 KCTP 260910
RWRCTP

REGIONAL WEATHER ROUNDUP
NATIONAL WEATHER SERVICE STATE COLLEGE PA
500 AM EDT TUE JUL 26 2016

Note: "fair" indicates few or no clouds below 12,000 feet with no
significant weather and/or obstructions to visibility.

* = STATION THAT DOES NOT REPORT PRECIPITATION /E.G. RAIN...SNOW...ETC/
    THUNDER OR FOG.

PAZ002>004-007>009-013>016-020>023-029>032-261000-
WESTERN PENNSYLVANIA

CITY           SKY/WX    TMP DP  RH WIND       PRES   REMARKS
ERIE           MOCLDY    72  62  71 NE9       30.00R
MEADVILLE      MOCLDY    67  66  97 N5        30.01R
FRANKLIN*      CLEAR     64  63  94 CALM      30.03S
NEW CASTLE     FOG       66  64  94 CALM      30.01R VSB 3/4
BEAVER COUNTY  NOT AVBL
BUTLER*        PTCLDY    66  64  94 CALM      30.02S
PITTSBURGH INT MOCLDY    71  67  87 CALM      30.00R
PITTSBURGH     CLEAR     71  68  90 S5        30.00R FOG
INDIANA*       PTCLDY    70  70 100 CALM      30.04S
LATROBE        CLEAR     68  68 100 CALM      30.01S
WASHINGTON CO* MOCLDY    64  63  94 CALM      30.01S VSB 1/2
$$

PAZ004>006-010>012-017>019-024>028-033>037-041-042-045-046-049>053-261000-
CENTRAL PENNSYLVANIA

CITY           SKY/WX    TMP DP  RH WIND       PRES   REMARKS
BRADFORD       CLOUDY    62  61  96 CALM      30.02R FOG
DUBOIS         FOG       67  64  90 CALM      30.00S VSB 1
CLEARFIELD     FOG       70  68  93 S5        30.00R VSB 1/4
JOHNSTOWN      CLEAR     69  65  86 SW5       30.04S
ALTOONA        PTCLDY    68  65  90 NW3       30.01S
STATE COLLEGE  PTCLDY    70  69  97 W6        29.98S
WILLIAMSPORT   CLOUDY    71  68  90 W5        29.94R
SELINSGROVE    FOG       69  69 100 CALM      29.95R VSB 1/2
FT INDIANTOWN  FOG       68  68 100 CALM      29.94S VSB 1
CAPITAL CITY   FOG       72  70  93 W5        29.94S VSB 1/2
HARRISBURG     MOCLDY    72  72 100 N3        29.93S
YORK           FOG       70  69  97 CALM      29.95S VSB 3/4
$$

PAZ038>040-043-044-047-048-054-055-060>062-067>071-261000-
EASTERN PENNSYLVANIA

CITY           SKY/WX    TMP DP  RH WIND       PRES   REMARKS
SCRANTON       CLOUDY    69  68  96 SW6       29.94R FOG
MOUNT POCONO   CLOUDY    65  64  97 NW7       29.96S FOG
ALLENTOWN      CLEAR     68  65  90 W5        29.92S FOG
QUAKERTOWN*      N/A     66  66 100 CALM      29.94S VSB 1/2
READING        CLOUDY    69  67  93 CALM      29.93R FOG
LANCASTER      CLOUDY    69  69 100 NW3       29.93F FOG
COATESVILLE    MOSUNNY   70  70 100 W7        29.95S
POTTSTOWN      NOT AVBL
BLUE BELL      PTCLDY    68  68 100 CALM      29.90F
DOYLESTOWN     PTCLDY    68  68 100 CALM      29.91F
WILLOW GROVE   NOT AVBL
NORTH PHILA    PTCLDY    73  71  93 NW6       29.91F
PHILADELPHIA   MOCLDY    75  71  87 NW9       29.91S
$$



USA.gov is the U.S. government's official web portal to all federal, state and local government web resources and services.